Flag for Kosovo Weather past 2 weeks in Uroševac, Kosovo

Now
28 °F

Snow. Ice fog.


Feels Like: 28 °F
Forecast: 6 / 31 °F
Wind: 1 mph from North

Location: Skopje-Petrovec

Current Time: Dec 28, 2014 at 7:43:48 PM

Latest Report: Dec 28, 2014 at 7:00 PM


Visibility: 1 mi

Pressure: 29.59 "Hg

Humidity: 100%

Dew point: 28 °F

Location of UroševacLocation

Historic Weather in Uroševac — Graph

°F

Uroševac temperature yesterday

Maximum temperature yesterday: 39 °F (at 11:30 AM)
Minimum temperature yesterday: 21 °F (at 10:00 PM)
Average temperature yesterday: 32 °F

Past Weeks' High & Low Weather Summary

 TemperatureHumidityPressure
High50 °F (Dec 21, 1:00 PM)100% (Dec 13, 11:00 PM)30.51 "Hg (Dec 13, 11:00 PM)
Low21 °F (Dec 25, 6:30 AM)34% (Dec 22, 3:00 PM)29.59 "Hg (Dec 28, 7:00 PM)
Average34 °F86%30.18 "Hg
* Reported Dec 13 7:00 PM — Dec 28 7:00 PM, Uroševac, Weather by CustomWeather, © 2014

Note: Actual official high and low records may vary slightly from our data, if they occured in-between our weather recording intervals... More about our weather records

Advertising

Uroševac weather history for previous 24 hours

 ConditionsComfort  
Time TempWeatherWind HumidityBarometerVisibility
7:00 PM
Dec 28
28 °FSnow. Ice fog.1 mph100%29.59 "Hg1 mi
6:30 PM28 °FSnow. Ice fog.No wind100%29.62 "Hg1 mi
6:00 PM28 °FLight snow. Ice fog.1 mph100%29.62 "Hg1 mi
5:30 PM28 °FSnow. Ice fog.1 mph100%29.62 "Hg1 mi
5:00 PM30 °FSnow. Ice fog.1 mph93%29.65 "Hg1 mi
4:30 PM30 °FSnow. Ice fog.No wind93%29.65 "Hg1 mi
4:00 PM30 °FSnow. Ice fog.No wind93%29.65 "Hg0 mi
3:30 PM30 °FSnow. Ice fog.1 mph93%29.65 "Hg1 mi
3:00 PM30 °FSnow. Ice fog.No wind93%29.68 "Hg1 mi
2:30 PM30 °FSnow. Ice fog.No wind93%29.68 "Hg1 mi
2:00 PM28 °FLight snow. Ice fog.3 mph100%29.71 "Hg1 mi
1:30 PM30 °FLight snow. Ice fog.6 mph86%29.71 "Hg1 mi
1:00 PM32 °FLight snow. More clouds than sun.10 mph69%29.71 "HgN/A
12:30 PM34 °FMore clouds than sun.6 mph70%29.71 "HgN/A
12:00 PM34 °FPartly sunny.3 mph70%29.71 "HgN/A
11:30 AM32 °FPartly sunny.6 mph69%29.71 "HgN/A
11:00 AM32 °FPartly sunny.3 mph75%29.74 "HgN/A
10:30 AM30 °FPartly sunny.2 mph80%29.77 "HgN/A
10:00 AM30 °FPassing clouds.1 mph75%29.77 "HgN/A
9:30 AM28 °FPassing clouds.No wind86%29.80 "HgN/A
9:00 AM27 °FPassing clouds.2 mph86%29.80 "HgN/A
8:30 AM25 °FPassing clouds.1 mph93%29.80 "HgN/A
8:00 AM23 °FPassing clouds.3 mph93%29.80 "HgN/A
7:30 AM23 °FPassing clouds.1 mph86%29.80 "HgN/A
7:00 AM23 °FPassing clouds.2 mph86%29.83 "HgN/A
6:30 AM21 °FPassing clouds.2 mph93%29.83 "HgN/A
6:00 AM21 °FClear.No wind93%29.83 "Hg10 mi
5:30 AM23 °FClear.1 mph86%29.83 "Hg10 mi
5:00 AM21 °FClear.No wind93%29.83 "Hg10 mi
4:00 AM23 °FClear.No wind93%29.86 "Hg10 mi
3:00 AM23 °FClear.No wind93%29.89 "Hg10 mi
2:30 AM23 °FClear.No wind93%29.89 "Hg10 mi
2:00 AM23 °FClear.No wind93%29.89 "Hg10 mi
1:30 AM23 °FClear.No wind86%29.92 "Hg10 mi
1:00 AM21 °FClear.2 mph93%29.92 "Hg10 mi
12:30 AM21 °FClear.No wind86%29.92 "Hg10 mi
12:00 AM21 °FClear.No wind86%29.92 "Hg10 mi
11:30 PM
Dec 27
21 °FClear.No wind86%29.95 "Hg10 mi
11:00 PM21 °FClear.No wind86%29.95 "Hg10 mi
10:30 PM21 °FClear.No wind86%29.95 "Hg10 mi
10:00 PM21 °FClear.No wind86%29.95 "Hg10 mi
9:30 PM23 °FClear.3 mph86%29.95 "Hg10 mi
9:00 PM23 °FClear.3 mph86%29.95 "Hg10 mi
8:30 PM25 °FClear.3 mph80%29.95 "Hg10 mi
8:00 PM25 °FClear.3 mph80%29.95 "Hg10 mi
7:30 PM27 °FClear.5 mph80%29.95 "Hg10 mi
7:00 PM28 °FClear.2 mph74%29.95 "Hg10 mi
Weather by CustomWeather, © 2014

See weather overviewHow to use our weather pages